Regional Weather Roundup
Issued by NWS Cleveland, OH

Home | Current Version | Previous Version | Text Only | Print | Product List | Glossary Off
Versions: 1 2 3 4 5 6 7 8 9 10 11 12 13 14 15 16 17 18 19 20 21 22 23 24 25 26 27 28 29 30 31 32 33 34 35 36 37 38 39 40 41 42 43 44 45 46 47 48 49 50

335
ASUS41 KCLE 222212
RWRCLE
OHIO REGIONAL WEATHER ROUNDUP
NATIONAL WEATHER SERVICE WILMINGTON, OH
500 PM EST WED FEB 22 2017

NOTE: "FAIR" INDICATES FEW OR NO CLOUDS BELOW 12,000 FEET WITH NO
SIGNIFICANT WEATHER AND/OR OBSTRUCTIONS TO VISIBILITY.

OHZ001>008-015>018-024>027-034-035-043-044-222300-
   NORTHWEST OHIO

CITY           SKY/WX    TMP DP  RH WIND       PRES   REMARKS
DEFIANCE       CLOUDY    62  52  69 SW8       29.76S
FINDLAY        CLOUDY    62  53  72 S10       29.77S
TOLEDO EXPRESS CLOUDY    61  54  77 SW8       29.76F
TOLEDO EXEC    CLOUDY    61  56  83 S9        29.77F
LIMA           CLOUDY    61  56  83 S9        29.78S
$$

OHZ009>014-019>023-028>033-038-089-222300-
   NORTHEAST OHIO

CITY           SKY/WX    TMP DP  RH WIND       PRES   REMARKS
CLE-HOPKINS    CLOUDY    62  52  69 S8        29.82F
CLE-LAKEFRONT  PTSUNNY   62  52  69 S9        29.79F
CUY CO. ARPT   CLOUDY    61  55  82 SW12      29.82S
LORAIN-ELYRIA  CLOUDY    60  51  72 SW8       29.80F
ASHTABULA      CLOUDY    58  55  90 S7        29.83S
AKRON-CANTON   CLOUDY    58  52  80 SW10      29.83S
WOOSTER        CLOUDY    57  53  86 S7        29.83S
MANSFIELD      CLOUDY    57  54  89 S10       29.81F
YOUNGSTOWN     CLOUDY    59  53  80 S3        29.84F
$$

OHZ042-051>053-060>062-070>072-077>081-222300-
  SOUTHWEST OHIO

CITY           SKY/WX    TMP DP  RH WIND       PRES   REMARKS
CINC-COVINGTON CLOUDY    65  57  75 S6        29.80F
CINC-LUNKEN    CLOUDY    64  59  83 SE5       29.81S
HAMILTON       CLOUDY    64  58  80 S5        29.81S
DAYTON         CLOUDY    61  55  81 S9        29.80F
WRIGHT-PAT AFB CLOUDY    61  60  97 S8        29.80S
DAYTON GENERAL CLOUDY    61  56  83 S9        29.80S
WILMINGTON     CLOUDY    59  56  89 S7        29.81F FOG
$$

OHZ036-037-039>041-045>050-054>059-063>069-073>076-082>088-222300-
  CENTRAL AND SOUTHEAST OHIO

CITY           SKY/WX    TMP DP  RH WIND       PRES   REMARKS
COLUMBUS       CLOUDY    60  55  83 S10       29.82F
OSU AIRPORT    CLOUDY    57  56  96 S10       29.81F
BOLTON FIELD   CLOUDY    57  55  94 S9        29.82F FOG
RICKENBACK AFB CLOUDY    57  55  92 S9        29.82F
NEWARK         CLOUDY    59  53  80 SW7       29.82F
MARION         CLOUDY    58  54  86 S9        29.81S FOG
LANCASTER      CLOUDY    60  54  80 S7        29.84F
ZANESVILLE     CLOUDY    58  53  84 S7        29.84F
NEW PHILLY     CLOUDY    60  53  77 SW3       29.84S
$$




USA.gov is the U.S. government's official web portal to all federal, state and local government web resources and services.